Home   Weather   Saint George's   Past weeks

Flag for Grenada Past Weather in Saint George's, Grenada — Yesterday and Last 2 Weeks

90 °F

Scattered clouds.

Feels Like: 105 °F
Forecast: 77 / 84 °F
Wind: 20 mph from Southeast

Location: Point Salines Airport

Current Time: Oct 23, 2016 at 12:22:13 PM

Latest Report: Oct 23, 2016 at 12:00 PM

Visibility: N/A

Pressure: 29.89 "Hg

Humidity: 71%

Dew Point: 79 °F

Location of Saint George'sLocation

Past Weather in Saint George's — Graph


Saint George's Temperature Yesterday

Maximum temperature yesterday: 90 °F (at 11:00 AM)
Minimum temperature yesterday: 79 °F (at 2:00 AM)
Average temperature yesterday: 85 °F

High & Low Weather Summary for the Past Weeks

High90 °F (Oct 16, 12:00 PM)100% (Oct 11, 2:00 PM)30.07 "Hg (Oct 11, 2:00 PM)
Low79 °F (Oct 9, 11:00 PM)66% (Oct 21, 1:00 PM)29.77 "Hg (Oct 8, 3:00 PM)
Average84 °F82%29.86 "Hg
* Reported Oct 8 11:00 AM — Oct 23 11:00 AM, Saint George's, Weather by CustomWeather, © 2016

Note: Actual official high and low records may vary slightly from our data, if they occured in-between our weather recording intervals... More about our weather records


Saint George's Weather History for the Previous 24 Hours

Scroll right to see more
Time TempWeatherWind HumidityBarometerVisibility
11:00 AM
Sun, Oct 23
88 °FScattered clouds.21 mph75%29.89 "HgN/A
10:00 AM88 °FScattered clouds.16 mph75%29.92 "HgN/A
9:00 AM82 °FSprinkles. Passing clouds.12 mph94%29.92 "Hg6 mi
8:00 AM84 °FSprinkles. Scattered clouds.14 mph84%29.92 "HgN/A
7:00 AM81 °FScattered clouds.6 mph94%29.89 "HgN/A
6:00 AM79 °FSprinkles. Passing clouds.6 mph94%29.86 "HgN/A
5:00 AM81 °FPassing clouds.6 mph89%29.86 "HgN/A
4:00 AM81 °FPassing clouds.8 mph89%29.86 "HgN/A
1:00 AM82 °FPassing clouds.14 mph89%29.89 "HgN/A
12:00 AM82 °FPassing clouds.14 mph89%29.89 "HgN/A
11:00 PM
Sat, Oct 22
82 °FPassing clouds.16 mph89%29.92 "HgN/A
10:00 PM84 °FThundershowers. Passing clouds.14 mph84%29.92 "HgN/A
9:00 PM82 °FPassing clouds.14 mph89%29.89 "HgN/A
8:00 PM84 °FPassing clouds.18 mph84%29.86 "HgN/A
7:00 PM84 °FPassing clouds.14 mph84%29.83 "HgN/A
6:00 PM84 °FPassing clouds.14 mph84%29.83 "HgN/A
5:00 PM88 °FPassing clouds.21 mph75%29.80 "HgN/A
4:00 PM88 °FScattered clouds.23 mph75%29.80 "HgN/A
3:00 PM88 °FPassing clouds.18 mph75%29.80 "HgN/A
2:00 PM90 °FPassing clouds.16 mph71%29.83 "HgN/A
1:00 PM90 °FPassing clouds.18 mph71%29.83 "HgN/A
12:00 PM88 °FPassing clouds.17 mph75%29.86 "HgN/A
Weather by CustomWeather, © 2016

See weather overviewHow to use our weather pages